Frontier, WY

10:38 AM MST on January 23, 2017 (GMT -0700)
Kemmerer Municipal

Weather History for KEMM - March, 2014

Change the Weather History Date:

Saturday, March 29, 2014

  Actual Average Record
Temperature  
Mean Temperature 34 °F -  
Max Temperature 46 °F 41 °F 65 °F (1986)
Min Temperature 23 °F 16 °F -1 °F (1975)
Degree Days  
Heating Degree Days 30    
Moisture  
Dew Point 25 °F    
Average Humidity 57    
Maximum Humidity 86    
Minimum Humidity 43    
Precipitation  
Precipitation 0.00 in - - ()
Sea Level Pressure  
Sea Level Pressure 30.00 in    
Wind  
Wind Speed 9 mph (WSW)    
Max Wind Speed 28 mph    
Max Gust Speed 34 mph    
Visibility 10 miles    
Events      
Averages and records for this station are not official NWS values.
T = Trace of Precipitation, MM = Missing Value Source: NWS Daily Summary

Daily Weather History Graph

Daily Weather History Graph

Search for Another Location

Airport or City:

Trip Planner

Search our weather history database for the weather conditions in past years. The results will help you decide how hot, cold, wet, or windy it might be!

Date:

Astronomy

Mar. 29, 2014 Rise Set
Actual Time 7:09 AM MDT 7:44 PM MDT
Civil Twilight 6:42 AM MDT 8:12 PM MDT
Nautical Twilight 6:09 AM MDT 8:45 PM MDT
Astronomical Twilight 5:34 AM MDT 9:19 PM MDT
Moon 6:21 AM MDT (3/29) 6:53 PM MDT (3/29)
Length of Visible Light 13h 30m
Length of Day
12h 34m
Waning Crescent, 1% of the Moon is Illuminated
Mar 29
Waning Crescent
Mar 30
New
Apr 7
First Quarter
Apr 15
Full
Apr 22
Last Quarter

Hourly Weather History & Observations

Time (MDT) Temp. Windchill Dew Point Humidity Pressure Visibility Wind Dir Wind Speed Gust Speed Precip Events Conditions
2:10 AM 23.0 °F 18.4 °F 19.4 °F 86% 30.14 in 10.0 mi North 3.5 mph - N/A   Clear
2:30 AM 26.6 °F - 19.4 °F 74% 30.14 in 10.0 mi Calm Calm - N/A   Clear
4:50 AM 30.2 °F 26.7 °F 19.4 °F 64% 30.09 in 10.0 mi SSW 3.5 mph - N/A   Clear
5:20 AM 30.2 °F - 19.4 °F 64% 30.08 in 10.0 mi Calm Calm - N/A   Clear
6:50 AM 30.2 °F 25.4 °F 19.4 °F 64% 30.07 in 10.0 mi SSW 4.6 mph - N/A   Clear
7:15 AM 32.0 °F 25.6 °F 19.4 °F 60% 30.07 in 10.0 mi SW 6.9 mph - N/A   Clear
7:55 AM 32.0 °F 28.7 °F 19.4 °F 60% 30.08 in 10.0 mi SW 3.5 mph - N/A   Clear
8:15 AM 32.0 °F - 19.4 °F 60% 30.08 in 10.0 mi Calm Calm - N/A   Clear
8:35 AM 33.8 °F - 21.2 °F 60% 30.09 in 10.0 mi Calm Calm - N/A   Clear
8:55 AM 33.8 °F 30.8 °F 21.2 °F 60% 30.07 in 10.0 mi SW 3.5 mph - N/A   Clear
9:15 AM 35.6 °F 30.7 °F 21.2 °F 56% 30.07 in 10.0 mi SW 5.8 mph - N/A   Scattered Clouds
9:35 AM 37.4 °F 33.8 °F 21.2 °F 52% 30.07 in 10.0 mi SW 4.6 mph - N/A   Scattered Clouds
9:55 AM 39.2 °F 31.2 °F 23.0 °F 52% 30.07 in 10.0 mi SW 13.8 mph 17.3 mph N/A   Scattered Clouds
10:15 AM 41.0 °F 34.3 °F 23.0 °F 49% 30.07 in 10.0 mi SW 11.5 mph - N/A   Scattered Clouds
10:35 AM 42.8 °F 35.8 °F 24.8 °F 49% 30.06 in 10.0 mi SW 13.8 mph 19.6 mph N/A   Scattered Clouds
10:55 AM 44.6 °F 37.2 °F 23.0 °F 43% 30.06 in 10.0 mi SW 17.3 mph 24.2 mph N/A   Clear
11:15 AM 44.6 °F 37.2 °F 24.8 °F 46% 30.06 in 10.0 mi SW 17.3 mph 25.3 mph N/A   Clear
11:35 AM 44.6 °F 36.6 °F 23.0 °F 43% 30.05 in 10.0 mi WSW 19.6 mph 27.6 mph N/A   Clear
11:55 AM 44.6 °F 35.7 °F 23.0 °F 43% 30.04 in 10.0 mi WSW 24.2 mph 32.2 mph N/A   Clear
12:15 PM 46.4 °F 38.7 °F 24.8 °F 43% 30.04 in 10.0 mi WSW 20.7 mph 24.2 mph N/A   Scattered Clouds
12:35 PM 46.4 °F 38.7 °F 26.6 °F 46% 30.04 in 10.0 mi WSW 20.7 mph 27.6 mph N/A   Scattered Clouds
12:55 PM 46.4 °F 38.5 °F 24.8 °F 43% 30.02 in 10.0 mi West 21.9 mph 32.2 mph N/A   Scattered Clouds
1:15 PM 44.6 °F 35.1 °F 24.8 °F 46% 30.02 in 10.0 mi West 27.6 mph 34.5 mph N/A   Clear
1:35 PM 44.6 °F 35.5 °F 24.8 °F 46% 30.02 in 10.0 mi WSW 25.3 mph 34.5 mph N/A   Clear
1:55 PM 44.6 °F 35.5 °F 24.8 °F 46% 30.01 in 10.0 mi West 25.3 mph 33.4 mph N/A   Clear
2:15 PM 44.6 °F 36.4 °F 26.6 °F 49% 30.01 in 10.0 mi West 20.7 mph 28.8 mph N/A   Clear
2:35 PM 46.4 °F 38.1 °F 24.8 °F 43% 30.00 in 10.0 mi West 24.2 mph 32.2 mph N/A   Clear
2:55 PM 46.4 °F 39.0 °F 24.8 °F 43% 30.00 in 10.0 mi West 19.6 mph 27.6 mph N/A   Clear
3:15 PM 44.6 °F 35.9 °F 26.6 °F 49% 29.99 in 10.0 mi West 23.0 mph 27.6 mph N/A   Clear
3:35 PM 44.6 °F 36.4 °F 26.6 °F 49% 29.99 in 10.0 mi WSW 20.7 mph 26.5 mph N/A   Clear
3:55 PM 44.6 °F 37.8 °F 26.6 °F 49% 29.99 in 10.0 mi West 15.0 mph 24.2 mph N/A   Clear
4:15 PM 44.6 °F 37.4 °F 26.6 °F 49% 29.98 in 10.0 mi West 16.1 mph 24.2 mph N/A   Clear
4:35 PM 42.8 °F 35.4 °F 26.6 °F 53% 29.97 in 10.0 mi West 15.0 mph - N/A   Clear
4:55 PM 41.0 °F 33.1 °F 28.4 °F 61% 29.96 in 10.0 mi West 15.0 mph - N/A   Clear
5:15 PM 41.0 °F 34.3 °F 28.4 °F 61% 29.96 in 10.0 mi West 11.5 mph - N/A   Clear
5:35 PM 41.0 °F 34.7 °F 28.4 °F 61% 29.95 in 10.0 mi West 10.4 mph - N/A   Clear
5:55 PM 41.0 °F 34.7 °F 28.4 °F 61% 29.94 in 10.0 mi WSW 10.4 mph - N/A   Clear
6:15 PM 41.0 °F 35.8 °F 30.2 °F 65% 29.94 in 10.0 mi West 8.1 mph - N/A   Clear
6:35 PM 39.2 °F 33.6 °F 30.2 °F 70% 29.93 in 10.0 mi West 8.1 mph - N/A   Clear
6:55 PM 39.2 °F 33.6 °F 28.4 °F 65% 29.93 in 10.0 mi WSW 8.1 mph - N/A   Clear
7:15 PM 37.4 °F 31.4 °F 28.4 °F 70% 29.92 in 10.0 mi WSW 8.1 mph - N/A   Clear
7:35 PM 37.4 °F 32.1 °F 28.4 °F 70% 29.93 in 10.0 mi WSW 6.9 mph - N/A   Clear
7:55 PM 37.4 °F 32.1 °F 28.4 °F 70% 29.93 in 10.0 mi WSW 6.9 mph - N/A   Clear
8:15 PM 37.4 °F 32.1 °F 28.4 °F 70% 29.93 in 10.0 mi WSW 6.9 mph - N/A   Clear
8:35 PM 37.4 °F 34.9 °F 26.6 °F 65% 29.93 in 10.0 mi SW 3.5 mph - N/A   Clear
8:55 PM 37.4 °F 32.8 °F 26.6 °F 65% 29.93 in 10.0 mi SSW 5.8 mph - N/A   Clear
9:15 PM 37.4 °F 33.8 °F 26.6 °F 65% 29.93 in 10.0 mi SSW 4.6 mph - N/A   Clear
9:35 PM 35.6 °F - 24.8 °F 65% 29.92 in 10.0 mi Calm Calm - N/A   Clear
9:55 PM 37.4 °F 33.8 °F 24.8 °F 60% 29.91 in 10.0 mi SW 4.6 mph - N/A   Clear
10:15 PM 37.4 °F 34.9 °F 24.8 °F 60% 29.91 in 10.0 mi SW 3.5 mph - N/A   Clear
10:35 PM 37.4 °F 34.9 °F 24.8 °F 60% 29.90 in 10.0 mi SW 3.5 mph - N/A   Clear
10:55 PM 37.4 °F - 23.0 °F 56% 29.89 in 10.0 mi Calm Calm - N/A   Clear
11:15 PM 35.6 °F - 24.8 °F 65% 29.89 in 10.0 mi Calm Calm - N/A   Clear
11:35 PM 33.8 °F 27.7 °F 26.6 °F 75% 29.88 in 10.0 mi North 6.9 mph - N/A   Clear